This demonstration page uses our WeatherBlox Daily Observations layout. Learn more.

Left ArrowRight Arrow

Hourly Observations for August 16, 2021

Temp ( °F °C ) Dew Point ( °F °C ) Humidity (%) Winds ( mph kmh ) Pressure ( in mb ) Visibility ( mi km ) Precip ( " mm )
12:15 am 00:15 Mostly Cloudy 68 20 56 13.6 67 67 ENE 7 11 30.11 1020 10 16 0.00 0.00
12:35 am 00:35 Mostly Cloudy 67 19.7 56 13.6 68 68 E 6 9 30.10 1019 10 16 0.00 0.00
12:55 am 00:55 Partly Cloudy 67 19.6 56 13.6 68 68 E 5 7 30.10 1019 10 16 0.00 0.00
1:15 am 01:15 Partly Cloudy 67 19.2 57 13.7 71 71 ENE 3 6 30.10 1019 10 16 0.00 0.00
1:35 am 01:35 Partly Cloudy 65 18.6 57 13.9 74 74 NE 3 6 30.10 1019 10 16 0.00 0.00
1:55 am 01:55 Clear 64 17.7 58 14.4 81 81 NE 3 6 30.10 1019 10 16 0.00 0.00
2:15 am 02:15 Partly Cloudy 64 18 57 14 78 78 NE 3 6 30.09 1019 10 16 0.00 0.00
2:35 am 02:35 Mostly Cloudy 64 17.8 57 14 79 79 Calm 30.09 1019 10 16 0.00 0.00
2:55 am 02:55 Mostly Cloudy 63 17.4 58 14.4 83 83 Calm 30.10 1019 10 16 0.00 0.00
3:15 am 03:15 Mostly Cloudy 64 17.5 58 14.3 82 82 NE 3 6 30.08 1019 10 16 0.00 0.00
3:35 am 03:35 Cloudy 63 17 58 14.4 85 85 Calm 30.09 1019 10 16 0.00 0.00
3:55 am 03:55 Cloudy 63 17.4 57 14 81 81 ENE 3 6 30.08 1018 10 16 0.00 0.00
4:15 am 04:15 Cloudy 64 17.7 57 14 79 79 Calm 30.07 1018 10 16 0.00 0.00
4:35 am 04:35 Cloudy 64 17.8 57 14 79 79 Calm 30.07 1018 10 16 0.00 0.00
4:55 am 04:55 Cloudy 63 17.3 57 14.1 82 82 Calm 30.08 1018 10 16 0.00 0.00
5:15 am 05:15 Cloudy 63 17 57 14.1 83 83 Calm 30.08 1019 10 16 0.00 0.00
5:35 am 05:35 Cloudy 62 16.8 58 14.5 86 86 Calm 30.08 1019 10 16 0.00 0.00
5:55 am 05:55 Cloudy 62 16.8 58 14.2 85 85 Calm 30.08 1019 10 16 0.00 0.00
6:15 am 06:15 Cloudy 62 16.9 57 13.8 82 82 NE 3 6 30.09 1019 10 16 0.00 0.00
6:35 am 06:35 Cloudy 63 17 57 13.7 81 81 Calm 30.08 1019 10 16 0.00 0.00
6:55 am 06:55 Cloudy 63 17 57 14 83 83 NNE 3 6 30.09 1019 10 16 0.00 0.00
7:15 am 07:15 Cloudy 62 16.7 57 14 84 84 Calm 30.09 1019 10 16 0.00 0.00
7:35 am 07:35 Mostly Cloudy 62 16.5 57 14 85 85 NE 3 6 30.08 1019 10 16 0.00 0.00
7:55 am 07:55 Partly Cloudy 62 16.4 57 14.1 86 86 Calm 30.09 1019 10 16 0.00 0.00
8:15 am 08:15 Sunny 62 16.8 58 14.4 86 86 E 3 6 30.08 1019 10 16 0.00 0.00
8:35 am 08:35 Sunny 64 17.9 58 14.7 82 82 E 3 6 30.08 1019 10 16 0.00 0.00
8:55 am 08:55 Sunny 65 18.2 59 14.9 81 81 E 6 9 30.08 1019 10 16 0.00 0.00
9:15 am 09:15 Sunny 66 18.9 59 15.1 79 79 E 5 7 30.09 1019 10 16 0.00 0.00
9:35 am 09:35 Partly Cloudy 67 19.3 60 15.6 79 79 ENE 5 7 30.09 1019 10 16 0.00 0.00
9:55 am 09:55 Cloudy 68 20 60 15.8 77 77 ENE 5 7 30.08 1018 10 16 0.00 0.00
10:15 am 10:15 Cloudy 69 20.6 61 16 75 75 Calm 30.08 1019 10 16 0.00 0.00
10:35 am 10:35 Cloudy 69 20.7 61 16.1 75 75 E 5 7 30.08 1019 10 16 0.00 0.00
10:55 am 10:55 Cloudy 71 21.5 62 16.7 74 74 E 6 9 30.08 1019 10 16 0.00 0.00
11:15 am 11:15 Partly Cloudy 73 22.5 63 17.3 73 73 ESE 3 6 30.08 1019 10 16 0.00 0.00
11:35 am 11:35 Partly Cloudy 74 23.4 64 17.7 70 70 E 6 9 30.08 1018 10 16 0.00 0.00
11:55 am 11:55 Sunny 74 23.6 64 17.8 70 70 NE 5 7 30.06 1018 10 16 0.00 0.00
12:15 pm 12:15 Partly Cloudy 75 23.8 64 18 70 70 ENE 6 9 30.06 1018 10 16 0.00 0.00
12:35 pm 12:35 Partly Cloudy 75 24.1 65 18.4 71 71 ENE 8 13 30.06 1018 10 16 0.00 0.00
12:55 pm 12:55 Mostly Cloudy 77 24.8 66 18.9 70 70 Calm 30.05 1018 10 16 0.00 0.00
1:15 pm 13:15 Mostly Cloudy 76 24.5 66 18.8 71 71 NE 7 11 30.05 1018 10 16 0.00 0.00
1:35 pm 13:35 Cloudy 76 24.5 66 18.9 71 71 NNE 7 11 30.04 1017 10 16 0.00 0.00
1:55 pm 13:55 Cloudy 76 24.2 66 18.7 71 71 ENE 5 7 30.04 1017 10 16 0.00 0.00
2:15 pm 14:15 Cloudy 78 25.3 67 19.4 70 70 NE 5 7 30.04 1017 10 16 0.00 0.00
2:35 pm 14:35 Cloudy 76 24.7 66 19.1 71 71 ENE 5 7 30.04 1017 10 16 0.00 0.00
2:55 pm 14:55 Cloudy 76 24.7 66 19.1 71 71 Calm 30.04 1017 10 16 0.00 0.00
3:15 pm 15:15 Cloudy 76 24.5 67 19.4 73 73 Calm 30.03 1017 10 16 0.00 0.00
3:35 pm 15:35 Cloudy 77 25 67 19.5 72 72 ENE 5 7 30.03 1017 10 16 0.00 0.00
3:55 pm 15:55 Cloudy 78 25.4 67 19.6 70 70 Calm 30.02 1017 10 16 0.00 0.00
4:15 pm 16:15 Mostly Cloudy 78 25.7 68 20 71 71 NE 5 7 30.01 1016 10 16 0.00 0.00
4:35 pm 16:35 Mostly Cloudy 77 25.2 67 19.4 70 70 NE 3 6 30.01 1016 10 16 0.00 0.00
4:55 pm 16:55 Partly Cloudy 78 25.5 68 19.9 71 71 NE 7 11 30.00 1016 10 16 0.00 0.00
5:15 pm 17:15 Partly Cloudy 77 25.1 68 20.1 74 74 NE 8 13 30.00 1016 10 16 0.00 0.00
5:35 pm 17:35 Partly Cloudy 77 25.2 68 20 73 73 NE 7 11 29.99 1016 10 16 0.00 0.00
5:55 pm 17:55 Mostly Cloudy 76 24.7 68 19.9 75 75 NE 7 11 29.99 1016 10 16 0.00 0.00
6:15 pm 18:15 Cloudy 77 24.8 68 20.2 76 76 NE 6 9 29.99 1016 10 16 0.00 0.00
6:35 pm 18:35 Mostly Cloudy 76 24.4 68 19.8 76 76 NE 7 11 29.99 1016 10 16 0.00 0.00
6:55 pm 18:55 Mostly Cloudy 76 24.6 68 20 76 76 NE 8 13 29.99 1016 10 16 0.00 0.00
7:15 pm 19:15 Cloudy 75 24.1 67 19.7 77 77 NE 8 13 29.99 1016 10 16 0.00 0.00
7:35 pm 19:35 Cloudy 75 23.8 67 19.7 78 78 NE 6 9 29.99 1016 10 16 0.00 0.00
7:55 pm 19:55 Cloudy 74 23.5 68 19.8 80 80 NE 5 7 29.99 1016 10 16 0.00 0.00
8:15 pm 20:15 Partly Cloudy 73 22.9 68 19.8 83 83 NE 5 7 30.00 1016 10 16 0.00 0.00
8:35 pm 20:35 Sunny 72 22 67 19.7 87 87 NE 5 7 30.00 1016 10 16 0.00 0.00
8:55 pm 20:55 Clear 71 21.4 67 19.7 90 90 NE 5 7 30.00 1016 10 16 0.00 0.00
9:15 pm 21:15 Clear 70 21 67 19.5 91 91 NE 5 7 30.01 1016 10 16 0.00 0.00
9:35 pm 21:35 Clear 69 20.6 67 19.5 93 93 NE 5 7 30.01 1016 10 16 0.00 0.00
9:55 pm 21:55 Clear 69 20.5 67 19.3 93 93 NE 5 7 30.01 1016 10 16 0.00 0.00
10:15 pm 22:15 Clear 68 20.1 67 19.2 95 95 NE 5 7 30.02 1016 10 16 0.00 0.00
10:35 pm 22:35 Clear 68 20.2 67 19.2 94 94 NE 3 6 30.03 1017 10 16 0.00 0.00
10:55 pm 22:55 Clear 68 20.2 67 19.2 94 94 ENE 3 6 30.03 1017 10 16 0.00 0.00
11:15 pm 23:15 Clear 68 20 66 19.1 95 95 Calm 30.03 1017 10 16 0.00 0.00
11:35 pm 23:35 Clear 67 19.3 66 18.7 96 96 NNE 3 6 30.04 1017 7 11 0.00 0.00
11:55 pm 23:55 Clear with Mist and Fog 66 18.8 65 18.4 98 98 Calm 30.04 1017 5 8 0.00 0.00

Powered by AerisWeather